Tracking 27112 objects as of 27-Mar-2023
HD Live streaming from Space Station
objects crossing your sky now

STARLINK-2351

Track STARLINK-2351 now!
10-day predictions
STARLINK-2351 is classified as:


NORAD ID: 47891
Int'l Code: 2021-021AH
Perigee: 553.5 km
Apogee: 555.5 km
Inclination: 53.1 °
Period: 95.6 minutes
Semi major axis: 6925 km
RCS: Unknown
Launch date: March 14, 2021
Source: United States (US)
Launch site: AIR FORCE EASTERN TEST RANGE (AFETR)
Your satellite tracking list
Your tracking list is empty




NASA's NSSDC Master Catalog

Two Line Element Set (TLE):
1 47891U 21021AH  23085.27807844  .00019235  00000-0  13080-2 0  9997
2 47891  53.0536  87.2822 0001436  89.1703 270.9450 15.06361619113521
Source of the keplerian elements: AFSPC